INTELSAT 18 (IS-18) (37834 NORAD) Tracking and Keplerian Element Data

This shows tracking and keplerian element data for the satellite.

Feedback or suggestion? Click here.




ElementValue
Catalog37834
NameINTELSAT 18 (IS-18)
Epoch Orbit2637
Epoch Day349.85251786
Epoch Year2018
RAAN327.1886
Inclination0.0103
Eccentricity0.0002071
Argument of Perigee299.324
Mean Anonmoly304.8504
Mean Motion1.00271819
Decay Rate6.6E-07
L11 37834U 11056A 18349.85251786 .00000066 00000-0 00000+0 0 9996
L22 37834 0.0103 327.1886 0002071 299.3240 304.8504 1.00271819 26376

Live tracking and technical data element details for INTELSAT 18 (IS-18) (NORAD 37834). INTELSAT 18 (IS-18) can be tracked NOW for your location showing map with azimuth and elevation plus other details from your city location.

Track the satellite on the map from your city or location and see movement details for azimuth, elevation, latitude, longitude, range, height, and movement on the map or in text.







IsCatalogInMostPopularTable: catalog: 37834, numindb: 57
Update: records affected: 1



GetName: 37834 INTELSAT 18 (IS-18)

Hit Count: updated at: Sun, 16 Dec 2018 10:48:28 GMT